GW6061 Weather Reports


time (UTC)temp
C
wind
direction
speed
KPH
gust
KPH
rain 1hr
cm
rain 24hr
cm
rain mn
cm
humidity
%
barometer
mb
20260507071208 12 320 0.0 8.0 0.00 0.38 0.15 100 1004.8
20260507070155 12 343 0.0 3.2 0.00 0.38 0.15 100 1004.8
20260507065128 12 352 1.6 3.2 0.00 0.38 0.15 100 1004.5
20260507062955 12 349 0.0 0.0 0.00 0.38 0.15 100 1004.6
20260507060745 12 337 0.0 0.0 0.00 0.38 0.15 100 1004.5
20260507055807 12 339 0.0 0.0 0.00 0.38 0.15 100 1004.9
20260507054829 12 343 0.0 0.0 0.00 0.38 0.15 100 1004.9
20260507053850 12 342 0.0 1.6 0.00 0.38 0.15 100 1004.7
20260507052835 13 344 0.0 0.0 0.13 0.38 0.15 100 1004.6
20260507050634 13 326 3.2 8.0 0.25 0.33 0.13 100 1005.0
20260507045628 15 330 3.2 11.3 0.53 0.28 0.08 100 1004.4
20260507044558 15 329 1.6 11.3 0.00 0.20 0.00 99 1004.4
20260507043541 15 337 1.6 11.3 0.00 0.20 0.00 97 1004.5
20260507042530 16 17 4.8 11.3 0.00 0.20 0.00 95 1004.1
20260507041547 16 336 3.2 9.7 0.00 0.20 0.00 92 1004.1
20260507040541 16 329 1.6 14.5 0.00 0.20 0.00 91 1003.8
20260507035604 16 0 0.0 3.2 0.00 0.20 0.20 91 1003.6
20260507034532 16 352 1.6 8.0 0.00 0.20 0.20 92 1003.6
20260507032341 17 349 0.0 6.4 0.00 0.20 0.20 99 1003.9
20260507031320 17 339 0.0 3.2 0.00 0.20 0.20 100 1003.4
20260507030246 17 347 1.6 11.3 0.00 0.20 0.20 98 1003.4
20260507025217 18 332 3.2 8.0 0.00 0.20 0.20 97 1003.2
20260507024216 18 320 3.2 11.3 0.00 0.20 0.20 96 1003.0
20260507023204 18 344 3.2 11.3 0.00 0.20 0.20 94 1003.0
20260507022158 18 335 1.6 8.0 0.00 0.20 0.20 95 1003.4
20260507021220 18 349 1.6 8.0 0.00 0.20 0.20 96 1002.9
20260507020225 18 347 0.0 8.0 0.00 0.20 0.20 100 1002.9
20260507015217 19 340 1.6 4.8 0.00 0.20 0.20 100 1003.3
20260507014239 19 335 1.6 8.0 0.00 0.20 0.20 100 1003.3
20260507013239 20 336 1.6 6.4 0.00 0.20 0.20 100 1003.3
20260507012223 20 340 0.0 0.0 0.00 0.20 0.20 100 1003.1
20260507010051 20 226 0.0 0.0 0.00 0.20 0.20 99 1002.8
20260507005059 20 246 0.0 1.6 0.00 0.20 0.20 99 1002.8
20260507004027 20 250 0.0 1.6 0.00 0.20 0.20 100 1002.7
20260507001919 20 178 0.0 0.0 0.00 0.20 0.20 98 1002.4
20260507000921 20 220 0.0 1.6 0.00 0.20 0.20 98 1002.4
20260506235851 20 219 0.0 0.0 0.00 0.20 0.20 98 1002.1
20260506234825 20 216 0.0 0.0 0.00 0.20 0.20 98 1002.1
20260506233819 20 240 0.0 0.0 0.00 0.20 0.20 96 1002.0
20260506232839 20 244 0.0 0.0 0.00 0.20 0.20 96 1002.0
20260506231821 20 226 0.0 0.0 0.00 0.20 0.20 95 1002.0
20260506225709 20 243 0.0 0.0 0.00 0.20 0.20 94 1001.8
20260506224638 20 198 0.0 0.0 0.00 0.20 0.20 94 1001.8
20260506223615 20 244 0.0 3.2 0.00 0.20 0.20 93 1002.0
20260506221502 20 237 0.0 0.0 0.00 0.20 0.20 93 1001.9
20260506220428 20 250 0.0 0.0 0.00 0.20 0.20 93 1001.8
20260506215435 20 240 0.0 0.0 0.00 0.20 0.20 93 1001.7
20260506214406 21 205 0.0 6.4 0.00 0.20 0.20 93 1001.7
20260506211104 20 230 0.0 0.0 0.00 0.20 0.20 93 1001.3
20260506210115 20 244 0.0 0.0 0.00 0.20 0.20 93 1001.3
20260506205051 20 184 0.0 0.0 0.00 0.20 0.20 93 1001.3
20260506202859 21 176 0.0 0.0 0.00 0.20 0.20 91 1001.3
20260506201902 21 179 0.0 6.4 0.00 0.20 0.20 92 1001.3
20260506200919 21 243 0.0 8.0 0.00 0.20 0.20 93 1001.3
20260506195858 20 210 0.0 6.4 0.00 0.20 0.20 92 1001.4
20260506194845 20 350 0.0 8.0 0.00 0.20 0.20 93 1001.4
20260506193839 20 240 0.0 3.2 0.00 0.20 0.20 96 1001.4
20260506192829 20 270 0.0 6.4 0.00 0.20 0.20 95 1001.7
20260506191801 20 237 0.0 8.0 0.00 0.20 0.20 96 1001.7
20260506190738 20 299 1.6 11.3 0.00 0.20 0.20 98 1001.9
20260506185752 19 329 1.6 11.3 0.00 0.20 0.20 98 1002.0
20260506184804 18 233 1.6 9.7 0.00 0.20 0.20 100 1002.0
20260506181541 18 174 3.2 11.3 0.00 0.20 0.20 100 1002.2
20260506180558 18 247 3.2 11.3 0.00 0.20 0.20 100 1002.4
20260506175557 18 240 3.2 11.3 0.00 0.20 0.20 100 1002.3
20260506174534 18 243 3.2 12.9 0.00 0.20 0.20 100 1002.3
20260506172413 17 198 3.2 16.1 0.00 0.20 0.20 100 1002.5
20260506170242 17 191 1.6 9.7 0.00 0.20 0.20 100 1002.5
20260506165305 16 258 3.2 9.7 0.00 0.20 0.20 100 1002.8
20260506163223 16 256 0.0 6.4 0.00 0.20 0.20 100 1002.8
20260506162207 16 176 3.2 11.3 0.00 0.20 0.20 100 1002.9
20260506160059 16 213 1.6 11.3 0.00 0.20 0.20 100 1003.0
20260506155047 16 200 1.6 17.7 0.00 0.20 0.20 100 1003.1
20260506152906 16 257 0.0 6.4 0.00 0.20 0.20 100 1003.6
20260506151856 16 202 0.0 8.0 0.10 0.20 0.20 100 1003.6
20260506150903 16 174 0.0 1.6 0.10 0.20 0.20 100 1003.6
20260506145858 16 182 0.0 14.5 0.15 0.15 0.15 100 1003.8
20260506144831 16 192 0.0 1.6 0.00 0.10 0.13 100 1003.8
20260506143644 16 232 0.0 8.0 0.00 0.10 0.13 100 1003.5
20260506142706 16 182 0.0 9.7 0.10 0.10 0.13 100 1003.7
20260506141726 16 258 0.0 3.2 0.10 0.10 0.13 100 1003.7
20260506140658 16 179 0.0 8.0 0.13 0.10 0.10 100 1003.8
20260506135707 16 188 0.0 9.7 0.13 0.08 0.08 100 1004.3
20260506134648 16 186 0.0 9.7 0.00 0.05 0.05 100 1004.3
20260506132538 17 223 0.0 9.7 0.00 0.03 0.03 100 1003.8
20260506131542 17 198 1.6 9.7 0.00 0.03 0.03 100 1003.8
20260506125458 18 184 0.0 8.0 0.00 0.00 0.00 93 1003.5
20260506124438 18 178 0.0 4.8 0.00 0.00 0.00 92 1003.5
20260506123445 18 212 0.0 9.7 0.00 0.00 0.00 90 1003.8
20260506122504 18 237 0.0 9.7 0.00 0.00 0.00 89 1004.0
20260506120402 18 175 0.0 0.0 0.00 0.00 0.00 87 1003.9
20260506114247 18 171 0.0 8.0 0.00 0.00 0.00 86 1003.4
20260506113112 18 193 0.0 6.4 0.00 0.00 0.00 86 1003.4
20260506112043 18 215 0.0 1.6 0.00 0.00 0.00 86 1003.3
20260506111051 18 236 0.0 8.0 0.00 0.00 0.00 86 1003.1
20260506110105 18 222 0.0 8.0 0.00 0.00 0.00 86 1003.1
20260506105100 18 178 0.0 8.0 0.00 0.00 0.00 85 1003.1
20260506104055 18 198 0.0 11.3 0.00 0.00 0.00 86 1003.0
20260506103056 18 178 1.6 11.3 0.00 0.00 0.00 85 1003.0
20260506100833 18 176 0.0 6.4 0.00 0.00 0.00 84 1002.9
20260506095815 18 172 0.0 3.2 0.00 0.00 0.00 83 1003.0
20260506094833 18 239 0.0 8.0 0.00 0.00 0.00 83 1003.0
20260506093846 18 176 0.0 6.4 0.00 0.00 0.00 82 1003.0
20260506092704 18 219 0.0 8.0 0.00 0.00 0.00 81 1002.9
20260506091634 19 185 0.0 11.3 0.00 0.00 0.00 80 1002.9
20260506090623 19 200 1.6 11.3 0.00 0.00 0.00 78 1003.2
20260506085630 19 272 1.6 14.5 0.00 0.00 0.00 77 1003.2
20260506084558 20 200 1.6 11.3 0.00 0.00 0.00 76 1003.2
20260506083618 20 213 1.6 11.3 0.00 0.00 0.00 75 1003.2
20260506073022 20 189 0.0 9.7 0.00 0.00 0.00 69 1003.2
20260506072045 21 174 1.6 16.1 0.00 0.00 0.00 68 1003.2